Temperature
21 20 20 21 26 30 29 30 30 30 30 29 28 28 29 28 28 26 22 22 21 20 19 20 20 20 20 19 19 19 19 19 19 19 19 19 19 19 19 18 18 18 18 18 18 18 18 18 18
21 20 21 25 29 29 29 30 30 30 29 28 28 28 28 27 24 22 21 21 21 20 19 19 20 20 20 19 19 19 19 19 19 19 19 19 19 19 18 18 18 18 18 18 18 18 18 18 18
21 21 25 29 30 30 29 30 30 29 28 28 28 28 27 26 23 22 21 20 20 20 19 20 20 20 19 19 19 19 19 19 19 19 19 19 19 18 18 18 18 18 18 18 18 18 18 18 17
22 24 27 30 30 30 30 31 30 30 29 28 28 28 25 22 22 21 20 20 21 20 19 20 20 19 19 19 19 19 19 19 19 19 19 18 18 18 18 18 18 18 18 18 18 18 18 17 17
23 27 30 30 30 31 31 30 30 30 30 29 28 28 25 21 21 21 20 21 20 20 19 19 20 19 19 19 19 19 19 19 19 18 18 18 18 18 18 18 18 18 18 18 17 17 18 17 17
27 29 30 30 30 31 31 30 30 30 30 29 28 28 24 21 21 21 20 20 20 20 19 19 19 19 19 19 19 19 19 19 18 18 18 18 18 18 18 18 18 18 18 17 17 17 17 17 17
28 30 31 31 30 31 31 31 31 31 30 29 28 28 24 21 21 20 20 20 20 20 19 18 18 19 19 19 19 18 18 18 18 18 18 18 18 18 18 18 18 18 17 17 17 17 17 17 17
27 30 31 31 30 31 31 31 30 30 30 27 27 28 25 21 20 20 20 20 19 19 19 18 18 18 18 18 18 18 18 18 18 18 18 18 18 18 18 17 18 18 18 17 17 17 17 17 17
26 30 31 31 30 31 31 31 30 29 28 27 26 26 24 21 20 20 19 19 19 19 19 19 18 18 18 17 18 18 18 18 18 18 18 17 17 17 17 17 18 18 18 17 17 17 17 17 17
28 30 31 31 31 31 31 30 30 29 29 27 25 23 21 21 20 19 19 19 18 18 18 18 18 18 18 17 17 17 17 17 17 17 17 17 17 17 17 17 17 17 17 18 17 17 17 17 17
29 30 31 31 30 30 31 31 30 30 30 29 27 23 21 20 20 19 19 19 19 18 18 18 18 18 18 17 17 17 17 17 17 17 17 17 17 17 17 17 17 17 17 17 17 17 17 17 17
29 30 29 30 30 30 30 30 30 30 29 27 26 23 21 20 20 20 19 19 18 18 18 17 17 17 17 17 17 18 17 17 17 17 17 17 17 17 17 17 17 17 17 17 17 17 17 17 17
29 30 30 30 30 30 30 30 30 29 27 26 24 23 21 21 20 20 19 18 18 18 17 17 18 18 18 18 18 17 17 17 17 17 17 17 17 17 17 17 17 17 17 17 17 16 16 16 17
30 30 30 30 30 30 30 30 30 28 26 25 24 23 22 21 20 19 19 18 18 17 17 17 18 18 18 18 18 17 17 17 17 17 17 17 17 17 17 17 17 17 17 17 17 17 16 17 17
28 29 30 31 31 30 30 30 30 27 26 25 24 23 22 21 20 19 19 18 18 17 17 17 18 18 18 18 18 17 17 17 17 17 17 17 17 17 17 17 17 17 17 16 16 16 16 17 17
30 30 30 31 31 30 30 30 30 27 26 26 24 23 21 20 20 19 19 18 18 17 17 17 17 17 18 18 17 17 17 17 17 17 17 17 17 17 17 17 17 17 17 16 16 17 17 17 17
29 29 30 30 31 31 30 30 30 27 27 26 24 23 22 20 20 19 18 18 18 18 18 18 17 17 17 17 17 17 17 17 17 17 17 17 17 17 17 17 17 17 17 16 17 17 17 17 17
29 30 29 30 30 30 30 30 30 27 27 26 25 23 22 21 20 19 18 18 18 18 18 18 17 17 17 17 17 17 17 17 17 17 17 17 17 17 17 17 16 17 17 16 16 16 16 17 17
29 29 29 29 30 30 30 30 30 28 27 26 25 23 22 21 20 19 18 18 18 18 17 17 17 17 17 17 17 17 17 17 17 17 17 17 17 17 17 17 16 16 17 16 16 16 16 17 16
28 28 29 29 29 29 30 30 30 29 27 26 25 24 23 21 20 19 18 18 18 18 18 18 18 18 17 17 17 17 17 17 17 17 17 17 17 17 17 17 17 17 16 16 16 16 17 17 17
28 28 29 29 29 29 29 30 30 29 27 26 25 24 23 22 20 19 18 18 18 17 18 18 18 18 17 17 17 17 17 17 17 17 17 17 17 17 16 16 17 16 16 16 16 16 16 17 17
28 29 29 28 28 29 29 29 30 29 28 27 26 25 23 22 21 19 18 18 18 18 18 18 17 18 17 17 17 17 17 17 17 17 17 17 17 17 17 16 16 16 16 16 16 16 16 16 17
29 29 28 28 28 29 29 29 30 29 29 28 27 25 24 22 21 20 19 18 18 18 17 17 17 17 17 17 17 17 17 17 17 17 17 17 17 17 16 16 16 16 16 16 16 16 16 16 17
29 28 28 28 29 28 29 28 29 30 29 28 27 25 23 22 21 20 19 18 18 18 18 17 17 17 17 17 17 17 17 17 17 17 17 17 17 17 16 16 16 16 16 16 16 16 16 16 16
28 27 27 27 28 28 28 28 29 29 28 28 27 25 23 22 21 20 19 18 18 18 18 17 17 17 17 17 17 17 17 17 17 17 17 17 17 17 16 16 16 16 16 16 16 16 16 16 16
28 28 28 27 28 29 28 28 29 28 27 26 26 25 23 22 22 21 20 19 18 18 18 17 17 17 17 17 17 17 17 17 17 17 17 17 17 17 16 16 16 16 16 16 16 16 16 16 16
28 28 30 29 28 28 29 29 29 28 27 27 26 25 24 23 22 21 20 19 18 18 18 17 17 17 17 17 17 17 17 17 17 17 17 17 17 17 16 16 16 16 16 16 16 16 15 16 16
29 29 29 28 27 27 28 28 29 28 28 27 26 25 24 23 22 21 20 19 18 18 18 17 17 17 17 17 17 17 17 17 17 17 17 16 16 16 16 16 16 16 16 16 16 15 15 15 15
27 28 28 29 29 28 28 28 29 29 28 27 26 25 24 23 22 21 20 19 19 18 18 18 17 17 17 17 17 17 17 17 17 17 16 16 16 16 16 16 16 16 16 16 16 15 15 15 15
29 29 28 28 27 28 28 29 28 28 28 27 26 25 24 23 22 21 20 19 19 18 18 18 17 17 17 17 17 17 17 17 17 17 16 16 16 16 16 16 16 16 16 16 16 15 15 15 15
Wind_Speed
9 6 4 4 4 3 10 8 6 6 5 5 4 2 4 5 5 5 7 17 19 20 21 21 18 18 17 17 17 17 17 17 16 16 15 14 13 12 11 11 11 11 11 12 13 13 13 14 14
4 3 4 5 1 7 9 7 7 7 5 4 3 2 3 5 6 7 11 17 20 21 21 20 20 19 18 17 17 17 17 17 16 15 14 13 12 12 11 11 11 11 11 12 13 13 13 13 14
4 5 4 3 4 7 8 6 5 4 3 2 2 2 3 4 5 7 12 19 20 19 20 21 21 20 19 18 17 16 16 16 15 15 14 13 12 11 11 11 11 11 12 12 13 13 13 13 14
4 4 4 2 7 7 5 4 3 2 2 1 1 3 4 5 3 8 17 20 20 19 20 23 22 20 19 18 17 16 16 15 15 14 13 12 12 11 11 11 11 11 12 12 13 13 13 13 13
5 4 4 4 6 5 3 3 2 1 0 1 1 3 5 4 6 13 18 19 19 19 20 23 22 21 19 18 17 16 16 15 14 14 12 12 11 11 11 11 11 12 12 12 12 13 12 12 12
4 4 3 4 6 4 3 2 2 2 1 1 1 2 5 6 10 15 17 17 17 18 19 22 21 20 19 18 17 16 15 14 14 13 12 11 11 11 12 12 12 12 12 12 12 12 11 11 12
5 3 1 3 4 4 4 4 4 4 2 1 1 2 6 8 11 15 16 15 16 16 17 19 20 19 18 17 16 16 15 14 13 12 12 12 12 12 12 12 11 12 12 11 11 11 11 11 11
5 4 3 3 2 4 4 4 4 5 2 2 2 2 5 11 13 15 15 14 14 14 16 17 18 18 18 17 16 15 14 14 13 12 12 12 12 12 12 12 11 11 11 11 10 10 10 10 10
5 5 3 2 2 3 5 6 4 2 1 2 1 2 6 17 17 16 15 14 14 13 14 15 15 16 16 16 15 14 14 13 12 12 11 11 11 11 11 11 11 11 11 11 10 10 10 10 10
5 5 1 3 4 7 8 7 4 3 3 4 5 7 13 17 17 18 17 17 17 16 14 13 14 14 14 13 14 12 11 12 11 10 11 8 7 7 9 12 11 11 11 11 10 9 10 9 10
5 4 2 3 6 8 8 7 3 5 4 2 6 12 15 17 16 16 16 16 17 16 14 13 13 13 13 11 12 10 9 9 9 10 9 8 7 7 8 9 10 10 11 9 10 9 7 5 4
6 5 6 7 8 8 8 6 4 4 4 3 4 14 17 17 16 16 16 15 15 16 15 14 13 12 11 10 9 9 9 8 8 9 9 8 6 6 6 5 7 7 6 5 6 5 4 4 4
9 7 7 8 8 7 7 6 5 2 2 2 8 14 15 15 15 14 13 14 14 15 16 15 13 12 11 9 8 9 8 8 8 8 8 7 6 5 6 5 4 5 6 7 5 5 5 4 5
6 8 9 8 7 5 6 6 4 1 2 5 9 11 13 13 14 13 14 14 15 15 16 14 14 13 11 10 8 8 8 8 8 8 8 7 6 6 5 5 5 4 5 4 4 5 5 4 4
7 10 10 7 5 4 6 7 3 2 3 5 7 9 10 11 11 13 13 14 15 15 15 15 14 13 12 11 10 8 8 9 7 7 8 8 7 6 5 5 5 4 5 5 5 5 4 4 4
9 11 10 5 3 3 7 7 2 3 5 5 6 8 9 9 10 11 12 12 14 14 15 15 13 13 12 10 9 7 8 8 7 7 8 9 7 7 5 4 5 5 5 5 4 5 4 4 4
11 10 8 4 2 4 7 7 1 3 5 5 6 8 8 9 9 10 11 12 13 14 15 15 13 13 12 11 8 8 7 7 7 7 7 8 8 8 6 4 4 6 5 5 5 5 4 4 3
7 8 7 6 2 6 8 7 2 3 5 5 7 7 8 9 10 10 11 12 13 14 14 14 14 13 12 9 8 7 7 7 8 7 7 8 8 8 7 5 5 6 5 5 4 4 3 3 3
7 8 8 6 4 7 7 7 4 4 6 6 7 7 8 8 9 10 11 12 13 13 13 13 14 14 11 9 9 8 8 8 7 7 9 9 9 8 7 5 6 5 5 5 6 5 6 5 3
11 11 10 6 2 6 8 8 4 4 6 5 6 8 8 9 10 11 12 12 13 13 13 14 13 13 13 10 8 7 7 6 6 6 8 9 10 9 8 6 6 6 4 6 6 5 4 4 4
13 12 9 7 6 7 8 10 5 4 5 5 6 7 8 10 11 12 12 13 13 13 13 13 13 13 13 11 9 7 6 5 6 7 7 9 10 10 8 8 7 6 7 6 7 6 7 5 5
13 10 9 8 9 6 4 9 4 4 5 6 6 6 8 9 11 11 12 13 13 13 13 12 12 12 12 12 11 11 9 8 9 8 7 8 9 10 10 8 7 7 6 6 7 6 5 6 5
10 5 7 8 9 10 8 9 4 3 4 4 5 5 7 9 10 11 11 11 11 12 12 11 12 12 12 12 12 11 9 8 7 8 8 8 8 9 9 9 8 7 6 6 5 5 6 6 6
8 6 6 8 9 11 7 7 6 1 1 1 4 5 7 9 9 10 10 10 10 11 11 11 12 12 12 12 11 11 11 9 9 10 9 9 8 8 9 9 8 8 7 7 7 6 7 5 5
13 11 8 9 9 8 3 6 4 2 1 0 3 6 8 9 9 10 10 10 10 11 11 12 12 12 12 13 12 12 12 11 11 10 9 8 8 8 9 9 8 8 7 7 7 7 6 7 6
16 16 10 7 6 4 6 5 0 2 1 2 4 7 9 10 9 10 10 10 11 11 12 12 12 12 12 12 12 11 11 10 9 9 8 9 7 8 9 10 9 8 9 8 7 7 7 6 6
14 15 14 9 7 6 4 3 3 3 4 5 7 9 9 9 9 9 10 10 10 11 11 12 12 11 12 12 12 11 11 11 10 9 9 8 8 8 10 10 10 9 9 8 8 7 7 6 7
13 11 9 10 8 8 6 6 3 5 5 7 8 9 10 9 9 9 9 10 9 10 10 11 11 11 10 11 10 10 11 10 9 9 9 8 8 8 9 10 10 9 9 9 9 8 7 7 6
13 12 11 10 9 7 5 3 3 4 5 7 8 8 9 10 10 9 9 9 10 10 10 9 9 9 9 9 10 9 10 9 9 9 9 8 7 8 9 9 9 9 9 9 9 8 7 8 7
15 15 14 11 9 9 7 2 5 4 5 6 8 8 8 9 9 10 9 9 9 9 9 9 8 9 9 9 9 9 9 9 9 8 8 7 7 8 8 8 9 9 9 9 9 8 8 7 7
Wind_Direction
201 212 238 249 238 107 74 68 58 59 60 62 78 52 36 35 19 62 123 147 145 146 144 150 147 143 139 135 134 135 136 137 136 135 134 132 130 125 121 119 114 111 109 108 108 108 110 112 114
200 221 242 248 262 88 79 63 58 52 69 95 102 80 63 65 56 103 137 146 149 147 148 151 145 143 140 138 136 136 136 136 136 135 134 132 130 126 124 120 116 113 112 111 112 112 113 114 113
214 242 267 255 69 70 75 63 57 77 102 119 96 49 44 62 101 130 144 151 151 147 147 144 148 145 143 141 139 140 139 138 138 137 136 135 132 129 126 122 119 115 113 113 114 114 115 114 112
238 239 242 234 90 72 56 49 49 122 125 140 136 94 86 58 104 135 146 155 151 149 149 147 152 148 146 145 145 144 142 141 140 139 138 136 133 130 126 123 120 117 115 115 116 116 117 117 115
247 261 227 132 92 77 51 17 343 263 1 152 205 98 99 78 105 137 152 156 154 154 150 149 153 150 148 148 148 147 145 144 142 139 138 135 132 129 125 121 120 117 116 117 119 118 119 120 118
248 249 215 115 95 78 63 20 320 291 289 199 207 138 104 115 133 146 155 159 157 155 150 147 153 152 151 151 151 149 148 146 143 141 140 136 130 126 123 122 121 119 117 119 122 121 121 121 121
272 265 138 104 97 85 37 8 335 324 284 226 216 159 128 138 142 151 155 158 157 156 151 152 157 156 154 155 154 151 149 146 144 142 139 135 131 127 123 122 122 121 120 120 122 123 124 123 124
279 262 175 130 86 65 29 355 346 320 340 114 199 210 153 151 150 151 154 158 158 159 157 157 162 159 160 158 156 153 151 147 145 142 140 137 134 130 131 133 123 122 122 123 124 125 125 126 127
261 243 173 99 29 17 358 337 344 316 158 153 156 43 116 143 151 152 156 159 162 164 162 163 161 161 161 157 153 157 153 151 150 148 144 156 154 142 147 120 125 127 127 126 125 126 129 137 136
242 242 105 23 341 332 331 324 317 239 211 182 151 119 130 147 156 161 165 168 169 168 168 165 162 162 161 157 154 161 161 158 165 155 157 161 143 141 129 122 129 130 130 131 127 132 155 182 151
239 263 335 315 325 322 317 317 300 276 274 239 188 158 154 158 164 169 173 175 172 168 169 168 166 166 164 157 157 161 160 160 166 158 159 154 155 151 141 144 144 146 155 151 145 170 176 163 124
245 262 280 297 317 312 309 311 307 297 336 12 163 160 163 168 171 176 177 178 174 170 171 171 167 164 165 162 161 163 162 164 165 160 168 162 162 159 146 155 151 159 156 149 162 162 154 152 151
238 266 280 289 299 303 293 289 299 313 14 90 142 159 169 174 177 177 177 178 176 174 172 171 168 166 165 165 171 167 164 164 162 162 168 170 167 165 153 148 155 165 153 161 166 161 155 166 173
254 270 278 284 289 280 281 279 257 248 126 136 154 166 173 179 179 176 178 181 180 178 172 171 171 169 170 172 174 167 165 163 165 169 166 178 171 162 164 161 165 164 169 157 167 159 168 182 168
263 267 264 255 271 275 282 256 233 155 172 169 167 169 174 180 182 182 181 183 180 177 172 172 173 174 177 179 175 171 167 167 170 163 166 179 181 166 175 166 175 168 162 159 180 168 179 183 174
242 248 247 224 265 269 275 276 113 153 185 184 174 171 176 182 187 185 183 182 179 176 175 177 176 176 179 178 176 169 170 168 170 171 175 181 179 175 185 177 175 167 176 179 176 194 185 183 183
229 239 244 233 231 283 276 284 98 183 198 192 183 178 180 181 186 183 182 180 177 176 174 177 176 176 179 176 171 169 169 174 177 181 182 180 185 186 193 187 164 185 185 187 198 175 202 187 185
234 243 241 251 271 291 279 281 270 207 213 200 189 185 185 186 186 180 178 177 176 176 175 176 176 177 177 173 169 170 173 181 184 186 186 185 190 192 197 189 182 200 194 191 201 172 206 208 198
265 262 260 266 302 292 279 285 272 218 215 203 195 190 189 187 178 173 172 174 173 176 174 174 178 177 175 174 176 174 180 184 184 188 187 192 197 192 200 198 180 208 200 203 198 197 187 202 198
244 251 254 252 273 289 285 282 263 224 219 215 202 195 192 180 173 172 172 172 176 177 178 179 181 177 178 178 180 178 176 187 185 188 186 196 200 197 195 201 200 199 196 203 209 212 215 196 196
234 244 255 271 287 253 275 262 220 206 202 200 202 200 195 185 178 176 177 178 180 182 185 186 183 180 181 175 175 172 169 182 186 192 193 199 201 201 204 199 210 199 208 198 206 206 217 211 196
234 237 251 262 268 261 268 285 242 209 213 202 198 197 192 184 178 177 179 181 183 186 186 182 179 181 179 178 183 182 186 194 195 192 191 192 197 198 199 200 203 208 212 194 206 205 219 226 214
235 225 238 253 260 268 249 272 278 208 237 195 186 193 185 179 178 177 181 183 183 183 180 177 177 179 180 184 184 189 198 201 194 191 188 194 191 196 199 199 201 204 211 201 207 193 221 220 228
212 206 224 241 248 250 249 267 280 268 313 167 166 171 174 171 170 172 173 175 180 179 176 175 177 179 181 184 189 196 199 198 193 192 189 194 191 195 198 198 198 201 203 197 202 203 207 227 234
203 213 218 221 225 240 194 254 277 26 6 242 169 162 165 165 167 167 168 172 177 177 175 177 179 181 184 187 191 194 198 198 199 197 194 198 195 195 194 196 196 201 202 203 204 207 217 212 215
204 218 233 243 241 220 184 244 271 91 106 145 152 151 158 162 165 167 168 169 173 176 177 178 182 183 185 188 190 193 196 201 201 199 199 202 207 201 189 194 198 200 202 204 202 210 208 209 216
207 223 239 256 265 263 228 224 201 168 159 153 148 151 158 160 161 167 167 168 172 178 181 179 181 184 187 188 188 192 198 205 203 197 204 206 207 200 191 196 198 200 201 203 202 214 210 205 216
226 219 219 232 239 245 231 230 219 172 165 155 156 157 158 159 163 165 167 169 171 177 178 179 181 185 187 189 192 193 197 201 198 200 200 203 205 204 195 197 200 202 200 200 207 208 205 207 212
198 209 219 227 243 254 241 198 119 156 154 158 157 158 159 165 165 163 164 165 167 171 174 177 179 184 187 192 196 195 193 193 192 197 199 202 205 201 200 199 200 202 202 201 205 214 199 206 206
205 211 211 219 222 240 265 163 110 138 142 154 153 151 157 161 163 162 161 161 164 168 171 174 178 186 189 190 194 195 190 190 191 195 196 198 198 199 199 199 201 203 202 201 202 206 200 204 208
Height
1505 1505 1505 1506 1500 1491 1494 1491 1487 1488 1488 1492 1494 1494 1493 1495 1498 1507 1509 1510 1513 1516 1518 1521 1524 1527 1530 1532 1534 1536 1538 1540 1542 1543 1545 1546 1547 1549 1550 1551 1551 1552 1553 1554 1555 1556 1557 1558 1559
1507 1506 1507 1504 1492 1497 1498 1490 1489 1490 1493 1495 1496 1496 1496 1499 1503 1506 1508 1510 1514 1517 1519 1522 1525 1528 1531 1533 1535 1537 1539 1541 1543 1545 1546 1548 1549 1550 1551 1552 1553 1554 1555 1556 1557 1558 1559 1560 1561
1507 1507 1507 1495 1490 1495 1496 1490 1490 1492 1495 1495 1496 1497 1498 1502 1506 1507 1508 1511 1515 1518 1521 1523 1526 1529 1532 1534 1537 1538 1540 1542 1544 1546 1548 1549 1550 1552 1553 1554 1555 1556 1557 1558 1559 1560 1561 1562 1563
1509 1509 1504 1493 1493 1492 1491 1490 1491 1492 1494 1496 1496 1498 1502 1506 1507 1508 1508 1512 1516 1519 1522 1523 1527 1530 1533 1535 1538 1540 1542 1544 1545 1547 1549 1550 1552 1553 1554 1555 1556 1557 1558 1559 1561 1562 1563 1564 1565
1509 1505 1494 1491 1491 1490 1490 1491 1492 1491 1492 1495 1496 1497 1503 1506 1507 1508 1510 1514 1517 1521 1524 1524 1528 1531 1534 1537 1539 1541 1543 1545 1547 1548 1550 1552 1553 1554 1555 1556 1558 1559 1560 1561 1562 1564 1565 1566 1567
1508 1499 1493 1494 1492 1490 1489 1491 1491 1491 1493 1495 1496 1497 1503 1506 1507 1509 1512 1516 1519 1522 1525 1525 1528 1532 1535 1538 1540 1542 1544 1546 1548 1550 1551 1553 1554 1555 1557 1558 1559 1560 1562 1563 1564 1565 1567 1568 1570
1506 1495 1492 1492 1492 1491 1490 1491 1490 1490 1491 1495 1497 1498 1503 1506 1507 1509 1513 1517 1520 1523 1525 1527 1530 1533 1535 1538 1541 1543 1545 1547 1549 1551 1552 1554 1555 1557 1558 1559 1560 1562 1563 1565 1566 1568 1569 1571 1571
1506 1496 1491 1491 1493 1491 1490 1491 1491 1491 1492 1496 1498 1497 1501 1505 1507 1510 1513 1517 1520 1523 1526 1528 1531 1533 1536 1539 1542 1544 1546 1548 1550 1552 1554 1555 1557 1558 1559 1561 1562 1563 1564 1566 1568 1569 1571 1572 1573
1506 1497 1492 1491 1493 1490 1489 1490 1491 1493 1494 1496 1498 1499 1500 1502 1506 1509 1513 1516 1519 1522 1526 1528 1531 1534 1537 1540 1542 1545 1547 1549 1551 1553 1554 1556 1559 1560 1561 1562 1563 1564 1566 1567 1569 1571 1572 1574 1575
1503 1494 1491 1492 1492 1491 1490 1490 1491 1491 1492 1495 1498 1500 1500 1501 1504 1507 1510 1513 1517 1521 1524 1528 1531 1534 1537 1540 1542 1545 1548 1550 1552 1554 1556 1558 1560 1562 1563 1563 1564 1566 1567 1569 1571 1572 1574 1576 1578
1500 1494 1492 1493 1493 1492 1490 1489 1489 1489 1487 1491 1495 1498 1500 1502 1504 1507 1510 1512 1516 1519 1523 1526 1530 1533 1536 1539 1542 1545 1548 1550 1553 1555 1557 1558 1561 1562 1564 1565 1566 1567 1569 1571 1571 1574 1577 1578 1579
1499 1495 1496 1494 1493 1492 1490 1489 1488 1489 1490 1492 1494 1496 1498 1501 1503 1506 1509 1512 1515 1518 1521 1525 1528 1532 1535 1539 1542 1544 1548 1550 1553 1555 1557 1559 1561 1563 1565 1565 1567 1569 1570 1572 1574 1575 1577 1578 1579
1498 1495 1494 1493 1492 1491 1490 1489 1489 1490 1492 1493 1494 1496 1498 1500 1503 1506 1509 1511 1514 1516 1519 1523 1526 1530 1534 1537 1541 1545 1547 1550 1553 1555 1557 1559 1561 1563 1564 1566 1567 1570 1571 1572 1573 1575 1576 1578 1579
1494 1494 1492 1491 1490 1489 1488 1487 1488 1489 1492 1493 1494 1496 1498 1500 1503 1505 1506 1509 1511 1514 1517 1521 1525 1529 1533 1537 1540 1544 1547 1549 1552 1555 1557 1558 1561 1563 1564 1566 1567 1570 1571 1573 1574 1575 1576 1578 1579
1496 1493 1489 1487 1487 1487 1487 1484 1485 1489 1491 1493 1494 1496 1498 1500 1502 1503 1505 1506 1510 1513 1516 1520 1524 1528 1532 1536 1539 1543 1546 1549 1552 1554 1556 1558 1560 1562 1564 1566 1567 1569 1570 1571 1573 1574 1576 1578 1579
1492 1490 1489 1484 1485 1486 1487 1485 1484 1488 1490 1491 1494 1496 1498 1499 1501 1502 1504 1506 1509 1512 1515 1519 1523 1527 1531 1535 1538 1542 1545 1548 1550 1553 1555 1557 1560 1561 1563 1565 1568 1568 1571 1572 1573 1575 1577 1578 1579
1489 1490 1488 1485 1484 1483 1483 1482 1482 1486 1488 1490 1492 1495 1497 1498 1500 1501 1502 1505 1507 1510 1513 1518 1522 1525 1530 1533 1537 1540 1543 1546 1549 1552 1555 1556 1559 1561 1563 1565 1567 1568 1570 1572 1573 1575 1576 1577 1578
1488 1487 1488 1487 1482 1483 1481 1479 1480 1484 1486 1487 1490 1493 1495 1497 1498 1500 1501 1503 1506 1509 1512 1516 1520 1524 1528 1532 1535 1538 1541 1545 1547 1550 1553 1555 1558 1560 1562 1564 1565 1568 1570 1571 1572 1573 1574 1576 1577
1487 1489 1489 1485 1482 1483 1480 1478 1477 1481 1483 1485 1488 1491 1493 1496 1498 1499 1500 1502 1504 1508 1511 1515 1518 1521 1525 1529 1533 1536 1540 1543 1546 1549 1551 1554 1556 1559 1560 1564 1565 1567 1569 1570 1572 1573 1574 1575 1577
1489 1491 1487 1483 1482 1483 1479 1476 1474 1478 1481 1483 1485 1488 1491 1494 1496 1498 1499 1501 1503 1506 1510 1513 1516 1520 1523 1527 1531 1535 1539 1542 1545 1547 1549 1552 1555 1557 1560 1561 1564 1566 1567 1568 1570 1571 1574 1575 1576
1488 1488 1485 1485 1482 1479 1480 1476 1472 1474 1479 1482 1484 1486 1489 1491 1494 1496 1498 1500 1502 1505 1508 1512 1515 1518 1522 1525 1530 1534 1537 1540 1543 1545 1548 1550 1553 1555 1558 1560 1562 1564 1566 1567 1568 1570 1572 1574 1575
1487 1481 1483 1485 1486 1480 1481 1484 1471 1470 1474 1477 1481 1484 1486 1489 1492 1495 1497 1499 1501 1504 1506 1510 1513 1517 1520 1524 1528 1531 1534 1537 1541 1544 1546 1548 1551 1553 1556 1558 1560 1562 1564 1565 1567 1569 1571 1572 1574
1479 1479 1481 1482 1483 1484 1478 1483 1471 1468 1471 1472 1477 1481 1484 1487 1490 1493 1495 1497 1500 1502 1505 1508 1511 1515 1519 1523 1526 1529 1533 1536 1539 1542 1544 1546 1549 1551 1554 1556 1558 1559 1562 1564 1565 1567 1568 1571 1572
1477 1482 1482 1481 1479 1490 1479 1484 1477 1465 1469 1470 1475 1480 1483 1486 1489 1491 1494 1496 1498 1500 1503 1506 1510 1513 1517 1520 1524 1527 1530 1533 1537 1539 1542 1544 1547 1549 1551 1553 1555 1557 1560 1561 1563 1564 1566 1568 1570
1478 1484 1489 1491 1489 1485 1475 1481 1474 1466 1468 1471 1474 1479 1482 1485 1488 1490 1493 1494 1496 1498 1502 1505 1508 1511 1515 1518 1522 1525 1528 1531 1534 1537 1540 1542 1545 1547 1549 1551 1553 1555 1557 1559 1561 1562 1565 1566 1567
1474 1475 1485 1491 1487 1478 1478 1478 1467 1466 1470 1472 1474 1478 1482 1485 1487 1490 1492 1494 1496 1498 1501 1504 1507 1510 1513 1516 1520 1523 1526 1529 1532 1535 1538 1540 1543 1545 1547 1549 1551 1553 1554 1557 1558 1561 1562 1563 1565
1470 1471 1463 1472 1476 1480 1472 1469 1465 1466 1468 1471 1474 1478 1481 1484 1487 1489 1492 1494 1496 1499 1501 1504 1507 1509 1512 1515 1518 1521 1524 1527 1530 1532 1535 1538 1540 1543 1544 1546 1548 1550 1552 1554 1556 1559 1560 1561 1563
1461 1462 1468 1474 1487 1488 1477 1473 1467 1465 1466 1469 1473 1476 1480 1484 1487 1489 1492 1494 1496 1499 1501 1504 1506 1508 1511 1514 1516 1519 1521 1524 1527 1529 1532 1535 1537 1539 1541 1544 1546 1548 1550 1552 1554 1556 1558 1559 1560
1466 1467 1465 1466 1467 1479 1482 1473 1456 1460 1464 1468 1472 1476 1479 1483 1486 1489 1491 1494 1496 1498 1501 1503 1505 1508 1510 1512 1514 1517 1519 1521 1524 1526 1529 1532 1534 1536 1539 1541 1543 1545 1547 1549 1551 1554 1555 1557 1558
1454 1457 1462 1471 1474 1470 1470 1469 1457 1460 1464 1468 1471 1476 1479 1482 1485 1488 1491 1494 1496 1498 1500 1502 1504 1506 1508 1510 1512 1514 1517 1519 1521 1524 1526 1529 1531 1533 1536 1538 1540 1542 1544 1546 1548 1551 1552 1554 1556